Showing default

IOD1_STARTICAL, 63212

Orbit data source: Space-Track

IOD1_STARTICAL, 63212 is a Spanish payload satellite in SSO that was launched on Sat, 15 Mar 2025 UTC via an FALCON 9 launch vehicle from the Air Force Western Test Range (AFWTR). Payload-class satellites include a variety of spacecraft equipped with specific instruments for various scientific and technological missions. These include communications satellites like Starlink; space stations such as the ISS; scientific satellites like the Hubble; Earth observation satellites from companies like Planet Labs, Umbra, and HawkEye 360; GPS; miniature CubeSats for education and research; and military/defense satellites.

Loading next visibility...
Identifier
63212, 2025-052C
Orbit
SSO
Country
Flag of ESES / SPN
Related business
Manufacturer
GOMSpace
Mission
Operational Commercial Communications
Bus & Motor
CUBESAT 16U, Unknown motor
Mass
20 kg wet, 20 kg dry
Launch date (UTC)
2025-03-15 (1 year ago)
Launch vehicle
FALCON 9
Launch site
Air Force Western Test Range (AFWTR)
Object type
Payload
Rocket body
Debris
Shape & HBR
Box + 2 Pan + 1 Ant, 0.3 m
Radar Cross Section
0.152 m², Medium (>0.1 m² and < 1m²)

Expand to show TLE details & history
Last TLE update: 8 hours ago

TLE from 8 hours ago
0 IOD1_STARTICAL
1 63212U 25052C   26219.96918850  .00047656  00000-0  56898-3 0  9991
2 63212  97.3733 123.4415 0003680 147.5434 212.6050 15.60897449 78546
Epoch: 2026-08-07T23:15Z
TLE epoch observation values (Epoch: 2026-08-07T23:15:37.886Z)
Latitude
-0.00004°
Longitude
178.04638°
Altitude
390.307 km
Speed
7.675 km/s
True Right ascension
08h 13m 45s
True Declination
0° 00' 00"
Sunlit
Object was in daylight at epoch
Visualization orbit readout
Latitude
Unknown
Longitude
Unknown
Altitude
Unknown
Speed
Unknown
Apparent Right ascension
Unknown
Apparent Declination
Unknown
Sunlit
N/A
Visualization observer readout
Local Sidereal Time
21:50:25
Azimuth
Unknown
Elevation
Unknown
Doppler factor
Unknown
Orbital elements
Apogee altitude
384.461 km
Perigee altitude
379.486 km
Semi-major axis
6,760.111 km
Eccentricity
0.00037
Inclination
97.3733°
RAAN
123.4415°
Arg. of periapsis
147.5434°
True anomaly
212.58229°
Mean anomaly
212.605°
Eccentric anomaly
212.59364°
Mean motion
3.90492 °/min
Orbital period
92.19 mins
BSTAR
0.00056898
Loading maneuver chart data...
Computing Atmospheric mass density...
Loading historical data...
Loading historical data...
Loading historical data...
Loading historical data...
Loading historical data...
Loading historical data...
Loading historical data...

Documentation

Showing up to 5 results
|